• In Uzbekistan
  • List of Countries
  • For 7 days
  • Water Temperature
  • Satellite Maps
  • Weather Map
  • Weather Widgets
  • user-avatar
    Login

    Hourly Weather Lehta

    Today, 22 June, Friday

    Time Temperature Precipitation Wind Pressure Humidity
    00:00 +18°C° 0 mm 2 mps 737 mmHg 58%
    01:00 +17°C° 0 mm 2 mps 738 mmHg 62%
    02:00 +16°C° 0 mm 3 mps 738 mmHg 64%
    03:00 +16°C° 0 mm 3 mps 739 mmHg 67%
    04:00 +14°C° 0 mm 3 mps 740 mmHg 70%
    05:00 +17°C° 0 mm 3 mps 740 mmHg 65%
    06:00 +18°C° 0 mm 4 mps 740 mmHg 59%
    07:00 +20°C° 0 mm 4 mps 741 mmHg 54%
    08:00 +20°C° 0 mm 4 mps 741 mmHg 51%
    09:00 +21°C° 0 mm 4 mps 742 mmHg 48%
    10:00 +22°C° 0 mm 5 mps 742 mmHg 45%
    11:00 +23°C° 0 mm 5 mps 743 mmHg 44%
    12:00 +23°C° 0 mm 5 mps 743 mmHg 42%
    13:00 +25°C° 0 mm 5 mps 743 mmHg 41%
    14:00 +25°C° 0 mm 4 mps 744 mmHg 41%
    15:00 +25°C° 0 mm 4 mps 744 mmHg 41%
    16:00 +25°C° 0 mm 4 mps 744 mmHg 40%
    17:00 +24°C° 0 mm 3 mps 744 mmHg 44%
    18:00 +24°C° 0 mm 3 mps 745 mmHg 47%
    19:00 +23°C° 0 mm 2 mps 745 mmHg 50%
    20:00 +21°C° 0 mm 2 mps 745 mmHg 54%
    21:00 +20°C° 0 mm 2 mps 746 mmHg 58%
    22:00 +19°C° 0 mm 2 mps 746 mmHg 62%
    23:00 +18°C° 0 mm 2 mps 746 mmHg 66%

    Tomorrow, 23 June, Saturday

    Time Temperature Precipitation Wind Pressure Humidity
    00:00 +16°C° 0 mm 2 mps 746 mmHg 71%
    01:00 +15°C° 0 mm 2 mps 747 mmHg 76%
    02:00 +15°C° 0 mm 2 mps 747 mmHg 77%
    03:00 +15°C° 0 mm 2 mps 747 mmHg 78%
    04:00 +14°C° 0 mm 2 mps 748 mmHg 79%
    05:00 +16°C° 0 mm 2 mps 748 mmHg 73%
    06:00 +17°C° 0 mm 2 mps 748 mmHg 66%
    07:00 +18°C° 0 mm 2 mps 748 mmHg 60%
    08:00 +20°C° 0 mm 3 mps 748 mmHg 54%
    09:00 +21°C° 0 mm 3 mps 748 mmHg 49%
    10:00 +24°C° 0 mm 3 mps 749 mmHg 43%
    11:00 +25°C° 0 mm 3 mps 749 mmHg 40%
    12:00 +26°C° 0 mm 2 mps 749 mmHg 36%
    13:00 +27°C° 0 mm 2 mps 749 mmHg 33%
    14:00 +28°C° 0 mm 2 mps 749 mmHg 31%
    15:00 +28°C° 0 mm 2 mps 749 mmHg 30%
    16:00 +29°C° 0 mm 2 mps 749 mmHg 28%
    17:00 +28°C° 0 mm 2 mps 749 mmHg 31%
    18:00 +28°C° 0 mm 1 mps 749 mmHg 33%
    19:00 +27°C° 0 mm 1 mps 749 mmHg 36%
    20:00 +25°C° 0 mm 1 mps 749 mmHg 41%
    21:00 +22°C° 0 mm 0 mps 750 mmHg 45%
    22:00 +20°C° 0 mm 0 mps 750 mmHg 50%
    23:00 +19°C° 0 mm 0 mps 750 mmHg 53%

    Day after tomorrow, 24 June, Sunday

    Time Temperature Precipitation Wind Pressure Humidity
    00:00 +18°C° 0 mm 0 mps 750 mmHg 56%
    01:00 +17°C° 0 mm 0 mps 751 mmHg 58%
    02:00 +17°C° 0 mm 0 mps 751 mmHg 60%
    03:00 +16°C° 0 mm 0 mps 751 mmHg 62%
    04:00 +16°C° 0 mm 0 mps 752 mmHg 64%
    05:00 +18°C° 0 mm 0 mps 752 mmHg 58%
    06:00 +21°C° 0 mm 0 mps 752 mmHg 51%
    07:00 +23°C° 0 mm 0 mps 752 mmHg 45%
    08:00 +25°C° 0 mm 0 mps 752 mmHg 40%
    09:00 +29°C° 0 mm 1 mps 752 mmHg 34%
    10:00 +30°C° 0 mm 1 mps 752 mmHg 29%
    11:00 +31°C° 0 mm 1 mps 752 mmHg 28%
    12:00 +32°C° 0 mm 1 mps 752 mmHg 26%
    13:00 +33°C° 0 mm 1 mps 752 mmHg 25%
    14:00 +33°C° 0 mm 1 mps 752 mmHg 25%
    15:00 +33°C° 0 mm 1 mps 752 mmHg 25%
    16:00 +33°C° 0 mm 1 mps 752 mmHg 26%
    17:00 +33°C° 0 mm 1 mps 752 mmHg 28%
    18:00 +32°C° 0 mm 1 mps 752 mmHg 31%
    19:00 +30°C° 0 mm 0 mps 751 mmHg 33%
    20:00 +27°C° 0 mm 0 mps 752 mmHg 39%
    21:00 +27°C° 0 mm 1 mps 752 mmHg 45%
    22:00 +25°C° 0 mm 1 mps 752 mmHg 51%
    23:00 +24°C° 0 mm 1 mps 752 mmHg 54%

    25 June, Monday

    Time Temperature Precipitation Wind Pressure Humidity
    00:00 +23°C° 0 mm 1 mps 752 mmHg 57%
    01:00 +22°C° 0 mm 1 mps 752 mmHg 59%
    02:00 +22°C° 0 mm 1 mps 752 mmHg 62%
    03:00 +22°C° 0 mm 1 mps 752 mmHg 64%
    04:00 +20°C° 0 mm 0 mps 752 mmHg 66%
    05:00 +22°C° 0 mm 0 mps 752 mmHg 61%
    06:00 +26°C° 0 mm 1 mps 753 mmHg 56%
    07:00 +28°C° 0 mm 1 mps 753 mmHg 50%
    08:00 +30°C° 0 mm 1 mps 753 mmHg 45%
    09:00 +32°C° 0 mm 1 mps 752 mmHg 40%
    10:00 +34°C° 0 mm 1 mps 752 mmHg 35%
    11:00 +35°C° 0 mm 1 mps 752 mmHg 33%
    12:00 +35°C° 0 mm 1 mps 752 mmHg 30%
    13:00 +36°C° 0 mm 1 mps 752 mmHg 28%
    14:00 +35°C° 0 mm 1 mps 752 mmHg 31%
    15:00 +34°C° 0 mm 1 mps 752 mmHg 33%
    16:00 +33°C° 0 mm 1 mps 752 mmHg 36%
    17:00 +33°C° 0 mm 1 mps 752 mmHg 37%
    18:00 +31°C° 0 mm 0 mps 752 mmHg 39%
    19:00 +30°C° 0 mm 0 mps 752 mmHg 41%
    20:00 +29°C° 0 mm 0 mps 752 mmHg 45%
    21:00 +29°C° 0 mm 1 mps 753 mmHg 49%
    22:00 +28°C° 0 mm 1 mps 753 mmHg 53%
    23:00 +27°C° 0.2 mm 1 mps 753 mmHg 57%

    26 June, Tuesday

    Time Temperature Precipitation Wind Pressure Humidity
    00:00 +25°C° 0.2 mm 1 mps 753 mmHg 62%
    01:00 +24°C° 0.2 mm 1 mps 753 mmHg 66%
    02:00 +24°C° 0.1 mm 1 mps 754 mmHg 69%
    03:00 +24°C° 0.1 mm 1 mps 754 mmHg 72%
    04:00 +23°C° 0.1 mm 1 mps 754 mmHg 75%
    05:00 +24°C° 0.2 mm 1 mps 754 mmHg 73%
    06:00 +25°C° 0.2 mm 1 mps 754 mmHg 72%
    07:00 +26°C° 0.2 mm 1 mps 754 mmHg 71%
    08:00 +28°C° 0 mm 1 mps 754 mmHg 63%
    09:00 +30°C° 0 mm 1 mps 755 mmHg 55%
    10:00 +31°C° 0 mm 1 mps 755 mmHg 48%
    11:00 +33°C° 0 mm 1 mps 755 mmHg 43%
    12:00 +34°C° 0 mm 1 mps 755 mmHg 38%
    13:00 +35°C° 0 mm 1 mps 755 mmHg 34%
    14:00 +35°C° 0 mm 1 mps 755 mmHg 35%
    15:00 +34°C° 0 mm 1 mps 755 mmHg 37%
    16:00 +33°C° 0 mm 1 mps 755 mmHg 38%
    17:00 +32°C° 0 mm 1 mps 755 mmHg 40%
    18:00 +32°C° 0 mm 1 mps 755 mmHg 43%
    19:00 +31°C° 0 mm 1 mps 755 mmHg 45%
    20:00 +29°C° 0 mm 1 mps 755 mmHg 49%
    21:00 +28°C° 0 mm 1 mps 755 mmHg 54%
    22:00 +26°C° 0 mm 1 mps 755 mmHg 58%
    23:00 +25°C° 0.3 mm 1 mps 756 mmHg 62%

    27 June, Wednesday

    Time Temperature Precipitation Wind Pressure Humidity
    00:00 +24°C° 0.3 mm 1 mps 756 mmHg 67%
    01:00 +22°C° 0.3 mm 1 mps 756 mmHg 71%
    02:00 +22°C° 0.1 mm 1 mps 756 mmHg 73%
    03:00 +22°C° 0.1 mm 1 mps 756 mmHg 75%
    04:00 +21°C° 0.1 mm 1 mps 757 mmHg 78%
    05:00 +23°C° 0 mm 1 mps 757 mmHg 71%
    06:00 +24°C° 0 mm 1 mps 757 mmHg 65%
    07:00 +26°C° 0 mm 1 mps 757 mmHg 59%
    08:00 +28°C° 0 mm 1 mps 757 mmHg 51%
    09:00 +30°C° 0 mm 1 mps 757 mmHg 43%
    10:00 +33°C° 0 mm 1 mps 757 mmHg 35%
    11:00 +34°C° 0 mm 1 mps 757 mmHg 32%
    12:00 +35°C° 0 mm 1 mps 756 mmHg 29%
    13:00 +36°C° 0 mm 1 mps 756 mmHg 26%
    14:00 +35°C° 0 mm 1 mps 756 mmHg 29%
    15:00 +32°C° 0 mm 0 mps 756 mmHg 31%
    16:00 +30°C° 0 mm 0 mps 756 mmHg 34%
    17:00 +30°C° 0 mm 0 mps 756 mmHg 36%
    18:00 +29°C° 0 mm 0 mps 756 mmHg 38%
    19:00 +30°C° 0 mm 1 mps 756 mmHg 40%
    20:00 +29°C° 0 mm 1 mps 756 mmHg 44%
    21:00 +27°C° 0 mm 1 mps 756 mmHg 47%
    22:00 +26°C° 0 mm 1 mps 756 mmHg 51%
    23:00 +25°C° 0 mm 1 mps 756 mmHg 53%
    Show more